Regional Weather Roundup
Issued by NWS Bismarck, ND

Home | Current Version | Previous Version | Text Only | Print | Product List | Glossary On
Versions: 1 2 3 4 5 6 7 8 9 10 11 12 13 14 15 16 17 18 19 20 21 22 23 24 25 26 27 28 29 30 31 32 33 34 35 36 37 38 39 40 41 42 43 44 45 46 47 48 49 50
000
ASUS43 KBIS 060710
RWRBIS

NWR BROADCAST TEXT
NATIONAL WEATHER SERVICE BISMARCK ND
200 AM CDT FRI MAY 06 2016

NOTE: "FAIR" INDICATES FEW OR NO CLOUDS BELOW 12,000 FEET WITH NO
SIGNIFICANT WEATHER AND/OR OBSTRUCTIONS TO VISIBILITY.


CITY           SKY/WX    TMP DP  RH WIND       PRES   REMARKS
WILLISTON      CLOUDY    63  42  46 CALM      29.81R
MINOT          PTCLDY    73  37  27 SW12      29.74R
MINOT AFB      PTCLDY    62  41  45 SW8       29.72R
BISMARCK       CLEAR     58  47  66 E3        29.78S
DICKINSON      CLEAR     58  43  57 S10       29.79F
GARRISON         N/A     60  40  47 S3        29.76R
HETTINGER ARPT CLOUDY    54  46  74 CALM      29.85S
JAMESTOWN      CLOUDY    57  48  72 S7        29.77S
BEACH          FAIR      54  41  62 NW3       29.86S
CARRINGTON     FAIR      59  48  67 SW10      29.77S
HAZEN          FAIR      55  41  58 CALM      29.79R
LINTON         FAIR      55  52  88 NE5       29.82S
MANDAN         FAIR      63  45  51 SW8       29.79S
OAKES            N/A    N/A N/A N/A MISG        N/A
RUGBY          FAIR      63  45  51 SW12      29.71S
STANLEY        FAIR      61  43  51 SW5       29.82R
TIOGA          FAIR      64  37  36 CALM      29.86R
WATFORD CITY   FAIR      54  45  71 CALM      29.81R
$$

CITY           SKY/WX    TMP DP  RH WIND       PRES   REMARKS
GRAND FORKS    CLEAR     62  44  51 SW10      29.70S
GRAND FORKS AF CLEAR     61  45  55 SW7       29.71R
DEVILS LAKE    PTCLDY    64  45  49 SW9       29.73S
FARGO          CLEAR     69  41  36 SW13      29.76S
CANDO          FAIR      59  41  51 SW10      29.73S
CAVALIER       FAIR      72  41  33 SW9       29.66S
GRAFTON        FAIR      59  43  55 SW7       29.70R
GWINNER        FAIR      63  45  51 SW10      29.81S
LANGDON        FAIR      57  41  54 SW10      29.71S
ROLLA          FAIR      64  39  39 SW13      29.73R
WALHALLA       FAIR      73  41  31 SW10      29.66S
$$

CITY           SKY/WX    TMP DP  RH WIND       PRES   REMARKS
ABERDEEN       CLEAR     60  46  59 S12       29.81F
MOBRIDGE       CLEAR     61  50  67 SE8       29.77F
BUFFALO          N/A     65  41  41 W7        29.80R
RAPID CITY     CLOUDY    53  43  68 NW6       29.87F
GLASGOW        CLOUDY    63  42  46 N24G31    29.88R
SIDNEY         CLOUDY    70  39  32 NW17      29.82R
WOLF POINT     CLOUDY    68  42  38 N24G37    29.83R
MILES CITY     CLOUDY    63  47  55 NW8       29.84R
BAKER          PTCLDY    57  45  64 N6        29.86R
$$

CITY           SKY/WX    TMP DP  RH WIND       PRES   REMARKS
BILLINGS       CLOUDY    65  39  38 N10       29.89R
GREAT FALLS    CLOUDY    52  40  63 N14       30.14R
REGINA         MOCLDY    59  41  51 N28G36    29.90R
ESTEVAN        PTCLDY    57  41  54 NW12      29.79R
$$





USA.gov is the U.S. government's official web portal to all federal, state and local government web resources and services.